Find Starlink 11519

NORAD ID: 62560 Int'l Des: 2025-006 Owner: SPXS Country: US Constellation: starlink operational
LEOCIRCULAR

Live Position

Loading 3D Globe...

About Starlink 11519

Description loading...

Upcoming Passes

Passes for default location (London). Set your location on the main map for personalized predictions.

Altitude History

Loading altitude history...

Two-Line Element Set

1 62560U 25006G 26124.48838417 .00193467 00000-0 14743-2 0 9991
2 62560 43.0022 163.9541 0002013 258.2372 101.8269 15.70873871 75372
Epoch: May 4, 2026 • Age: 10 hours

Current Status

Altitude 365.3 km
Velocity 7.69 km/s
Sub-Earth Point -36.21°S, 85.03°W
Launch Date Jan 10, 2025
Age 1.3 years
Type internet

Technical Details

Classification Payload
Mass 960.00 kg
Dry Mass 910.00 kg
Total Mass 960.00 kg
Length 0.30 m
Diameter 4.10 m
Span 29.00 m
Shape Box + pan
Manufacturer SPXS
Bus Type Starlink V2MD
Phase Status In Orbit
Owner/State SPXS/US

Most Searched